FLOCK 4V-6 (46289 NORAD) Tracking and Keplerian Element Data

This shows tracking and keplerian element data for the satellite.

Feedback or suggestion? Click here.




ElementValue
Catalog46289
NameFLOCK 4V-6
Epoch Orbit305
Epoch Day267.48856292
Epoch Year2020
RAAN340.2428
Inclination97.5179
Eccentricity0.0001066
Argument of Perigee304.6463
Mean Anonmoly55.4665
Mean Motion15.09989828
Decay Rate4.85E-06
L11 46289U 20061T 20267.48856292 .00000485 00000-0 33679-4 0 9998
L22 46289 97.5179 340.2428 0001066 304.6463 55.4665 15.09989828 3059

Live tracking and technical data element details for FLOCK 4V-6 (NORAD 46289). FLOCK 4V-6 can be tracked NOW for your location showing map with azimuth and elevation plus other details from your city location.

Track the satellite on the map from your city or location and see movement details for azimuth, elevation, latitude, longitude, range, height, and movement on the map or in text.







IsCatalogInMostPopularTable: catalog: 46289, numindb: -1

Insert: records affected: 1


GetName: 46289 FLOCK 4V-6

Hit Count: inserted at: Thu, 24 Sep 2020 18:01:44 GMT